Location: Nitra
(0.0000°N, 18.0833°E)
Time: 19:02:29
(UTC+02:00)

A-11 Canister half - Pass Details

Date: 01 April 2023
Orbit: 1526 x 1682 km, 47.3° (Epoch: 08 June)

Event Time Altitude Azimuth Distance (km) Brightness Sun altitude
Rises 22:33:21 0° 338° (NNW) 4,765 11.8 -55.2°
Enters shadow 22:35:54 - 344° (NNW) 4,027 11.3 -55.8°
Reaches altitude 10° 22:36:52 10° 347° (NNW) 3,759 - -56.0°
Maximum altitude 22:45:13 35° 49° (NE) 2,307 - -58.1°
Drops below altitude 10° 22:53:24 10° 111° (ESE) 3,694 - -60.1°
Sets 22:56:47 0° 120° (ESE) 4,673 - -61.0°
